Powrót do katalogu

TIANHUI 1-04

AktywnyNaukaSSO
NORAD 49049·PAYLOAD·🇨🇳 China

Wystrzelony Jul 29, 2021 z Jiuquan Satellite Launch Center

Loading…

Następne Przeloty (najbliższe 24 godziny)

TLE

ŚwieżeSource: Space-Track

Epoka: Sep 14, 2026, 15:43 UTC

1 49049U 21067A   26257.65540584  .00003741  00000-0  15929-3 0  9995
2 49049  97.2678 323.0186 0001670 131.3106 228.8276 15.23577598285214

Śledź TIANHUI 1-04 w czasie rzeczywistym z AllMySat

Download on the App Store